Regional Weather Roundup
Issued by NWS Raleigh/Durham, NC

Home | Current Version | Previous Version | Text Only | Print | Product List | Glossary On
Versions: 1 2 3 4 5 6 7 8 9 10 11 12 13 14 15 16 17 18 19 20 21 22 23 24 25 26 27 28 29 30 31 32 33 34 35 36 37 38 39 40 41 42 43 44 45 46 47 48 49 50
000
ASUS42 KRAH 211310
RWRRAH
NORTH CAROLINA WEATHER ROUNDUP
NATIONAL WEATHER SERVICE RALEIGH NC
900 AM EDT TUE APR 21 2015

NOTE: "FAIR" INDICATES FEW OR NO CLOUDS BELOW 12,000 FEET WITH NO
SIGNIFICANT WEATHER AND/OR OBSTRUCTIONS TO VISIBILITY.

NCZ001-053-055-056-065-067-211400-
WESTERN NORTH CAROLINA

CITY           SKY/WX    TMP DP  RH WIND       PRES   REMARKS
ASHEVILLE      CLOUDY    55  37  50 N10       29.93R
JEFFERSON      MOSUNNY   44  29  53 NW13G28   29.88R
MORGANTON      CLOUDY    56  40  55 CALM      29.95R
HICKORY        MOSUNNY   56  40  55 CALM      29.91R
RUTHERFORDTON  SUNNY     56  40  56 CALM      29.92R
MOUNT AIRY     MOSUNNY   56  42  61 W7        29.91R
BOONE          MOSUNNY   44  32  62 W20G31    29.89R
$$

NCZ021-022-025-041-071-084-088-211400-
CENTRAL NORTH CAROLINA

CITY           SKY/WX    TMP DP  RH WIND       PRES   REMARKS
CHARLOTTE      SUNNY     57  43  59 SW3       29.92R
GREENSBORO     MOSUNNY   57  39  51 NW8       29.88R
WINSTON-SALEM  MOSUNNY   56  39  53 NW12      29.90R
RALEIGH-DURHAM MOSUNNY   59  48  67 VRB3      29.88R
FORT BRAGG     SUNNY     63  40  42 N9        29.88R
FAYETTEVILLE   SUNNY     64  39  39 N12       29.88R
BURLINGTON     SUNNY     59  43  55 W7        29.88R
LAURINBURG     SUNNY     63  42  46 N9        29.91R
$$

NCZ011-015-027-028-043-044-047-080-103-211400-
NORTHEASTERN NORTH CAROLINA

CITY           SKY/WX    TMP DP  RH WIND       PRES   REMARKS
ROCKY MT-WILSO SUNNY     62  49  62 NW7       29.86R
GREENVILLE     SUNNY     63  46  55 N12       29.88R
WASHINGTON     SUNNY     63  48  58 NW15G21   29.84R
ELIZABETH CITY SUNNY     64  51  62 W18G28    29.80R
MANTEO         SUNNY     66  54  66 NW13G22   29.80R
CAPE HATTERAS  MOSUNNY   67  61  81 W14G22    29.80R
$$

NCZ078-087-090-091-093-098-101-211400-
SOUTHEASTERN NORTH CAROLINA

CITY           SKY/WX    TMP DP  RH WIND       PRES   REMARKS
LUMBERTON      SUNNY     64  45  49 N10       29.89R
GOLDSBORO      SUNNY     64  46  51 NW13      29.84R
KINSTON        SUNNY     64  41  42 NW12      29.86R
KENANSVILLE    SUNNY     63  43  46 N13       29.88R
NEW BERN       PTSUNNY   66  47  50 NW15G24   29.85R
CHERRY POINT   PTSUNNY   68  59  73 NW16      29.83R
BEAUFORT       MOSUNNY   69  60  73 W14       29.82R
JACKSONVILLE   SUNNY     67  53  61 NW17      29.83R
WILMINGTON     SUNNY     67  56  67 NW18      29.85R
$$



USA.gov is the U.S. government's official web portal to all federal, state and local government web resources and services.